Location: Eschertshofen
(49.3064°N, 11.5756°E)
Time: 02:18:34
(UTC+00:00)

NOSS 3-2 (A) - Pass Details

Date: 18 September 2020
Orbit: 795 x 1413 km, 63.4° (Epoch: 28 October)

Event Time Altitude Azimuth Distance (km) Brightness Sun altitude
Rises 18:09:33 0° 316° (NW) 3,855 7.7 -8.9°
Reaches altitude 10° 18:12:07 10° 320° (NW) 2,983 6.9 -9.3°
Maximum altitude 18:19:16 59° 40° (NE) 1,405 4.2 -10.4°
Enters shadow 18:26:34 13° 118° (ESE) 3,109 5.5 -11.6°
